Location: Brede
(50.9167°N, 0.6000°E)
Time: 01:34:24
(UTC+00:00)

SL-24 R/B - Pass Details

Date: 08 August 2020
Orbit: 717 x 1116 km, 91.9° (Epoch: 19 September)

Event Time Altitude Azimuth Distance (km) Brightness Sun altitude
Exits shadow 02:01:34 24° 165° (SSE) 1,492 5.6 -18.2°
Maximum altitude 02:04:33 77° 83° (E) 762 4.5 -18.0°
Drops below altitude 10° 02:09:39 10° 358° (N) 2,328 7.8 -17.6°
Sets 02:12:04 0° 357° (N) 3,307 8.7 -17.4°
